Location: St Paul
(33.4390°N, 83.7350°W)
Time: 07:16:57
(UTC-04:00)

Spot 2 Rocket - Pass Details

Date: 06 October 2017
Orbit: 758 x 772 km, 98.7° (Epoch: 18 October)

Event Time Altitude Azimuth Distance (km) Brightness Sun altitude
Exits shadow 21:21:20 40° 5° (N) 1,117 4.3 -27.6°
Drops below altitude 10° 21:24:34 10° 353° (N) 2,291 6.2 -28.3°
Sets 21:26:52 0° 351° (N) 3,221 7.0 -28.7°
